CST,Max TemperatureF,Mean TemperatureF,Min TemperatureF,Max Dew PointF,MeanDew PointF,Min DewpointF,Max Humidity, Mean Humidity, Min Humidity, Max Sea Level PressureIn, Mean Sea Level PressureIn, Min Sea Level PressureIn, Max VisibilityMiles, Mean VisibilityMiles, Min VisibilityMiles, Max Wind SpeedMPH, Mean Wind SpeedMPH, Max Gust SpeedMPH,PrecipitationIn, CloudCover, Events, WindDirDegrees
2012-11-1,54,40,27,29,25,19,81,56,37,29.98,29.91,29.84,10,10,10,14,6,21,0.00,3,,316
2012-11-2,46,35,24,28,25,21,89,66,39,30.18,30.10,30.00,10,10,10,6,3,,0.00,0,,17
2012-11-3,46,40,35,31,29,27,82,69,50,30.26,30.21,30.16,10,10,10,8,3,,0.00,8,,81
2012-11-4,48,39,30,32,30,27,85,70,50,30.27,30.22,30.17,10,10,8,8,3,,0.00,7,,112
2012-11-5,45,35,25,29,26,22,89,74,46,30.24,30.18,30.10,10,9,4,8,3,,0.00,2,,114
2012-11-6,37,31,25,36,33,22,100,92,78,30.09,29.91,29.84,6,3,0,8,2,,0.13,7,Fog-Rain-Snow,127
2012-11-7,41,38,35,36,34,32,96,87,73,30.16,30.07,29.91,10,7,3,7,3,,0.00,8,,345
2012-11-8,51,42,33,36,34,30,93,77,56,30.16,30.09,30.02,10,8,5,13,4,18,0.00,2,,154
2012-11-9,50,42,33,42,38,32,100,84,68,30.07,30.02,29.96,6,4,2,13,5,,0.00,6,,88
2012-11-10,69,58,46,53,48,43,87,72,48,29.97,29.81,29.68,10,7,3,18,12,31,0.00,4,Rain,136
2012-11-11,64,48,30,56,47,23,100,84,56,29.94,29.72,29.62,10,6,2,24,15,34,1.03,7,Rain-Thunderstorm,231
2012-11-12,28,26,24,21,17,14,80,67,58,30.34,30.12,29.97,10,9,2,17,14,31,0.00,7,Snow,266
2012-11-13,39,29,19,25,19,15,85,71,45,30.49,30.43,30.35,10,10,10,8,3,,0.00,0,,235
2012-11-14,50,40,30,31,28,23,75,64,48,30.44,30.36,30.31,10,10,10,13,6,20,0.00,2,,134
2012-11-15,54,41,27,31,28,24,92,69,40,30.37,30.30,30.23,10,9,5,17,4,,0.00,0,,176
2012-11-16,48,36,24,36,29,20,100,84,54,30.48,30.45,30.38,10,6,2,8,3,,0.00,0,,112
2012-11-17,55,40,24,35,29,23,100,81,47,30.50,30.45,30.40,9,3,0,13,2,,0.00,1,Fog,118
2012-11-18,57,46,34,33,32,30,85,61,36,30.38,30.31,30.26,10,8,4,15,8,,0.00,0,,122
2012-11-19,54,48,41,43,39,34,87,74,53,30.24,30.13,30.07,9,7,5,8,4,,0.00,6,,106
2012-11-20,51,45,39,45,43,39,100,92,80,30.17,30.12,30.06,5,2,0,7,2,,0.00,7,Fog,250
2012-11-21,57,45,33,44,39,33,100,87,57,30.18,30.10,29.96,8,3,0,10,4,,0.00,2,Fog,156
2012-11-22,62,50,37,46,38,27,74,62,50,29.95,29.80,29.66,10,10,8,28,10,39,0.00,3,,247
2012-11-23,37,32,26,25,16,12,69,59,54,30.27,30.09,29.87,10,10,4,28,20,38,0.00,8,Snow,298
2012-11-24,33,28,23,19,15,13,67,59,50,30.29,30.14,29.89,10,10,10,12,8,,0.00,6,,236
2012-11-25,39,29,19,22,19,15,89,67,49,30.13,29.95,29.84,10,10,8,13,4,21,0.00,0,,299
2012-11-26,30,21,12,22,13,5,81,65,39,30.42,30.29,30.14,10,9,7,13,3,18,0.00,3,,301
2012-11-27,32,20,7,14,10,2,84,62,42,30.42,30.32,30.22,10,9,1,12,2,,0.00,3,,228
2012-11-28,42,28,15,22,17,11,84,67,41,30.39,30.30,30.22,10,10,9,7,3,,0.00,0,,250
2012-11-29,50,36,23,31,27,19,85,67,46,30.20,30.11,30.04,10,8,6,10,3,,0.00,1,,102
2012-11-30,39,38,37,35,33,30,87,82,75,30.17,30.13,30.06,7,4,2,15,8,,0.00,8,,63